KB6OQJ Weather Reports


Display with metric or nautical units.
time (UTC)temp
F
wind
direction
speed
MPH
gust
MPH
rain 1hr
in
rain 24hr
in
rain mn
in
humidity
%
barometer
mb
20260505100004 51 223 0.0 0.0 0.00 0.00 0.00 27 891.7
20260505095004 51 223 0.0 0.0 0.00 0.00 0.00 29 830.5
20260505094004 51 223 0.0 0.0 0.00 0.00 0.00 31 1013.9
20260505093004 51 223 0.0 0.0 0.00 0.00 0.00 32 971.2
20260505092004 51 223 0.0 0.0 0.00 0.00 0.00 34 1014.1
20260505091004 51 223 0.0 0.0 0.00 0.00 0.00 36 1014.2
20260505090004 52 223 0.0 0.0 0.00 0.00 0.00 35 891.9
20260505085004 52 223 0.0 0.0 0.00 0.00 0.00 35 891.9
20260505083004 52 223 0.0 0.0 0.00 0.00 0.00 36 891.9
20260505082004 52 223 0.0 0.0 0.00 0.00 0.00 35 891.9
20260505081004 52 223 0.0 0.0 0.00 0.00 0.00 35 891.9
20260505080004 53 223 0.0 0.0 0.00 0.00 0.00 35 891.9
20260505075004 53 223 0.0 0.0 0.00 0.00 0.00 36 891.9
20260505074003 53 223 0.0 0.0 0.00 0.00 0.00 38 891.9
20260505073004 53 223 0.0 0.0 0.00 0.00 0.00 40 891.9
20260505072004 53 223 0.0 0.0 0.00 0.00 0.00 43 891.9
20260505071003 53 223 0.0 0.0 0.00 0.00 0.00 46 891.9
20260505070004 53 223 0.0 0.0 0.00 0.00 0.00 48 891.9
20260505065004 53 223 0.0 0.0 0.00 0.00 0.00 50 891.9
20260505064003 53 223 0.0 0.0 0.00 0.00 0.00 54 825.0
20260505063003 53 223 0.0 0.0 0.00 0.00 0.00 55 1014.1
20260505062004 53 223 0.0 0.0 0.00 0.00 0.00 56 1014.1
20260505061004 53 221 0.0 0.0 0.00 0.00 0.00 58 1014.1
20260505055003 54 221 0.0 0.0 0.00 0.00 0.00 60 1014.3
20260505054004 54 301 0.0 0.0 0.00 0.00 0.00 62 802.4
20260505053004 55 306 0.0 0.0 0.00 0.00 0.00 64 802.4
20260505052004 55 307 0.0 0.0 0.00 0.00 0.00 66 802.4
20260505051004 55 307 0.0 0.0 0.00 0.00 0.00 66 802.4
20260505041004 57 23 0.0 0.0 0.00 0.00 0.00 65 802.4
20260505040004 57 301 0.0 2.0 0.00 0.00 0.00 65 802.4
20260505035004 58 297 0.0 2.0 0.00 0.00 0.00 65 802.4
20260505034003 58 290 1.0 6.0 0.00 0.00 0.00 65 802.4
20260505032004 59 309 0.0 3.0 0.00 0.00 0.00 65 802.4
20260505031004 60 280 2.0 10.0 0.00 0.00 0.00 64 802.4
20260505030004 60 300 2.0 12.0 0.00 0.00 0.00 64 802.4
20260505004004 66 320 1.0 9.0 0.00 0.00 0.00 55 947.2
20260505003003 66 314 5.0 12.0 0.00 0.00 0.00 54 947.2
20260505001004 66 308 3.0 10.0 0.00 0.00 0.00 55 947.2
20260505000004 66 304 4.0 12.0 0.00 0.00 0.00 55 947.2
20260504234004 67 280 2.0 12.0 0.00 0.00 0.00 54 947.2
20260504233004 68 292 3.0 12.0 0.00 0.00 0.00 54 947.2
20260504220003 68 237 9.0 16.0 0.00 0.00 0.00 54 1013.7
20260504215004 68 258 2.0 10.0 0.00 0.00 0.00 54 1013.7
20260504214004 67 289 2.0 10.0 0.00 0.00 0.00 54 1013.7
20260504212004 67 308 1.0 10.0 0.00 0.00 0.00 54 1013.7
20260504211004 68 307 4.0 12.0 0.00 0.00 0.00 52 1013.7
20260504210004 69 286 3.0 13.0 0.00 0.00 0.00 52 1013.7
20260504205004 70 226 3.0 13.0 0.00 0.00 0.00 51 1013.7
20260504204004 71 276 9.0 14.0 0.00 0.00 0.00 50 1013.7
20260504203004 71 300 3.0 15.0 0.00 0.00 0.00 50 1013.7
20260504202003 71 246 3.0 13.0 0.00 0.00 0.00 48 1013.7
20260504201004 70 198 4.0 12.0 0.00 0.00 0.00 48 952.5
20260504200004 69 241 4.0 10.0 0.00 0.00 0.00 49 952.5
20260504195004 70 224 3.0 10.0 0.00 0.00 0.00 48 870.0
20260504194003 70 233 2.0 10.0 0.00 0.00 0.00 45 830.2
20260504193004 71 221 1.0 8.0 0.00 0.00 0.00 44 830.2
20260504191003 70 280 0.0 3.0 0.00 0.00 0.00 43 830.0
20260504185004 69 110 0.0 1.0 0.00 0.00 0.00 44 891.7
20260504183004 69 288 0.0 5.0 0.00 0.00 0.00 45 891.7
20260504182004 68 227 0.0 3.0 0.00 0.00 0.00 45 1014.4
20260504181004 69 187 1.0 6.0 0.00 0.00 0.00 46 830.4
20260504180004 68 268 3.0 12.0 0.00 0.00 0.00 49 1014.3
20260504174003 67 278 0.0 10.0 0.00 0.00 0.00 54 1014.2
20260504173004 66 244 0.0 0.0 0.00 0.00 0.00 56 1014.3
20260504172004 66 265 0.0 0.0 0.00 0.00 0.00 56 1014.3
20260504171004 66 259 0.0 0.0 0.00 0.00 0.00 57 1014.3
20260504151004 51 101 0.0 0.0 0.00 0.00 0.00 3 1015.0
20260504141003 44 63 0.0 0.0 0.00 0.00 0.00 3 1014.9